GFSMA_700_spd_126.txt.gz
Wind_Speed
36 36 35 34 33 32 30 29 28 25 24 25 24 22 19 17 17 16 15 17 19 19 19 18 20 18 18 18 17 15 15 15 17 17 17 16 15 25 26 23 20 17 15
43 39 38 38 35 33 32 31 31 29 29 28 27 26 24 21 21 19 17 18 19 20 20 19 21 22 21 21 21 18 16 16 17 15 15 17 17 20 28 27 25 21 18
52 47 43 41 37 36 34 32 33 33 33 32 32 31 29 26 25 23 21 20 20 21 20 21 21 25 23 21 21 20 18 18 19 17 17 19 19 26 29 33 29 24 21
50 59 38 43 38 36 35 36 38 38 37 34 34 33 32 31 28 27 26 23 22 21 21 21 22 22 23 23 21 21 22 19 21 21 21 20 22 25 30 35 30 27 24
30 33 30 44 49 44 33 39 40 43 40 40 35 36 34 32 30 30 29 26 24 22 21 20 20 21 21 22 21 21 24 23 22 23 21 20 18 20 21 29 31 30 27
34 36 36 34 38 41 44 54 56 44 45 50 43 40 38 36 34 31 32 31 29 26 22 20 20 19 19 20 21 21 23 25 23 23 22 22 21 22 27 31 32 32 31
42 39 37 38 39 41 44 44 53 57 60 53 48 47 43 39 37 40 33 32 33 30 26 22 20 18 17 17 17 18 20 23 24 24 23 22 22 22 27 33 42 42 38
42 40 37 39 42 44 45 43 42 50 46 57 57 55 51 42 40 45 44 37 35 33 30 25 22 20 17 16 14 14 16 19 23 24 24 23 18 20 22 26 31 38 39
40 40 41 40 44 46 45 43 43 44 37 59 52 58 56 52 49 50 47 47 42 38 34 29 25 23 20 19 17 15 14 14 19 22 24 24 24 18 22 26 33 36 38
43 41 39 41 46 47 46 44 41 39 31 46 46 67 62 53 50 41 50 48 41 43 35 33 31 27 24 23 20 18 17 15 15 19 23 23 27 26 24 26 37 46 46
43 43 40 38 41 48 46 44 43 42 40 43 41 48 46 49 43 45 39 38 42 44 39 38 35 32 30 28 26 22 21 19 17 17 21 23 25 26 32 31 37 42 50
42 43 43 42 40 43 47 45 44 45 45 46 47 48 49 47 45 42 38 34 29 23 44 43 38 34 32 30 29 25 24 23 22 19 20 23 23 25 25 36 40 42 43
42 41 43 43 43 43 45 47 46 46 47 48 48 51 52 51 47 43 40 34 35 30 29 43 44 38 33 30 32 30 27 25 25 23 22 22 23 23 23 25 27 48 56
44 42 43 44 45 44 45 48 48 48 49 50 50 50 50 50 48 46 43 38 37 35 36 41 46 38 33 32 33 32 31 29 27 26 24 24 23 23 24 17 20 38 45
46 45 43 43 43 45 45 46 49 50 50 50 52 52 52 50 48 49 47 45 43 42 39 35 47 38 34 33 34 35 34 31 28 28 27 26 24 23 21 13 12 29 39
47 46 43 42 43 44 44 45 48 51 51 51 52 52 53 52 51 48 48 47 45 42 41 38 43 44 39 38 37 37 34 34 33 32 30 27 26 24 22 21 16 17 25
43 42 42 41 42 44 44 45 47 50 52 52 52 52 53 53 53 50 48 48 47 45 47 41 42 52 48 43 43 39 39 39 37 31 29 30 27 26 25 25 23 22 21
36 38 39 40 41 41 43 46 47 48 50 51 51 51 51 51 52 53 49 48 50 48 49 47 44 46 48 49 49 45 43 40 38 35 33 33 30 30 29 29 29 28 27
31 33 36 38 38 38 38 40 43 43 44 45 44 43 44 48 50 51 51 50 49 51 51 48 45 44 45 49 52 44 45 44 41 40 39 36 35 33 33 33 33 32 32
23 25 27 30 32 31 30 32 32 37 39 40 38 40 39 40 42 44 47 51 52 52 51 51 48 47 47 46 48 49 47 44 42 42 41 39 38 37 36 34 34 33 32
25 24 21 20 21 24 24 26 29 33 33 37 39 38 37 36 37 38 39 46 49 53 52 52 47 47 43 45 45 48 49 46 44 46 47 47 47 48 42 38 36 36 34
30 30 23 19 12 12 13 14 15 17 17 19 28 31 32 35 36 39 39 44 53 47 50 48 47 46 48 46 42 45 47 47 47 43 43 46 46 45 43 41 38 38 38
35 35 34 28 23 21 15 10 8 14 17 13 16 18 26 25 26 28 35 44 49 41 43 42 43 46 45 45 42 43 46 46 44 38 39 35 35 40 46 45 41 40 40
29 32 36 38 36 32 31 27 19 11 0 8 16 14 18 13 20 25 34 31 33 39 40 41 44 48 47 45 41 44 45 49 51 50 48 46 42 41 42 45 42 41 40
29 32 32 32 34 38 38 37 33 26 16 9 5 6 11 12 10 18 21 18 25 34 39 42 43 44 44 44 44 43 46 49 53 55 46 44 49 46 45 42 42 40 39
28 28 30 31 33 34 33 34 37 36 34 32 26 15 13 14 12 16 18 21 23 26 35 39 41 44 48 46 45 42 37 38 39 44 36 36 35 47 45 47 42 40 37

GFSMA_700_spd_129.txt.gz
Wind_Speed
38 38 36 36 36 35 32 33 31 29 29 27 26 23 21 21 19 18 18 19 20 20 20 20 20 22 21 19 18 18 17 17 18 19 20 19 17 15 19 21 22 21 19
36 39 39 40 36 34 38 37 34 32 31 30 29 27 27 25 24 22 21 21 22 22 22 21 22 23 23 21 21 20 20 18 20 20 20 18 18 20 18 25 26 25 22
28 33 38 34 39 44 49 38 39 37 38 33 33 32 31 30 28 27 26 25 25 25 25 23 23 24 25 24 23 23 24 22 20 21 21 20 20 19 19 23 28 28 25
23 25 26 34 47 42 51 45 39 37 41 37 36 34 34 34 34 32 30 29 29 27 27 26 25 25 27 26 25 25 25 25 23 23 25 22 20 22 23 24 27 30 29
23 22 23 22 27 38 37 51 51 48 51 40 39 42 41 36 35 34 32 32 32 31 30 29 28 28 28 28 27 26 26 26 26 25 26 26 23 23 23 28 27 32 36
26 25 25 28 30 33 37 34 40 47 41 43 44 48 46 43 38 38 35 32 32 34 33 30 29 28 28 28 27 26 26 27 27 27 27 26 25 24 22 24 25 31 33
28 29 31 30 28 30 33 31 37 40 41 42 46 50 53 46 53 47 39 38 33 35 35 33 32 29 27 26 26 26 26 25 26 27 28 28 26 27 25 24 27 27 30
34 35 35 34 33 32 31 35 37 40 41 41 45 51 54 57 58 61 47 45 43 43 41 38 36 33 30 28 25 25 25 24 24 25 27 28 28 27 27 24 27 33 37
40 40 37 37 38 38 34 34 36 39 42 43 47 48 50 58 56 55 56 54 48 50 44 43 43 37 34 30 29 26 23 22 22 23 24 27 29 29 28 23 25 29 33
45 43 41 41 43 42 40 38 38 38 39 40 44 46 48 45 39 46 53 59 51 47 50 56 48 45 39 36 32 28 25 23 21 22 21 24 27 30 32 30 27 25 31
43 44 46 47 45 44 43 42 44 42 40 39 40 40 39 43 50 41 52 44 48 33 31 32 65 51 46 39 36 33 30 27 24 23 21 22 25 28 31 34 32 34 28
43 44 46 49 49 45 45 44 45 48 45 42 40 39 40 41 45 42 41 43 41 30 29 29 40 57 48 43 39 37 34 31 29 26 24 22 23 24 27 30 32 30 35
42 44 46 51 50 48 46 46 46 48 49 46 44 43 42 43 44 45 41 41 43 35 33 30 26 45 51 43 42 41 39 35 32 30 27 24 23 24 26 28 31 34 35
43 47 50 50 49 50 49 49 48 48 50 51 48 47 46 45 46 46 47 44 43 41 39 39 31 31 52 47 45 42 44 40 36 34 31 28 26 25 25 28 31 35 37
46 47 50 52 53 50 50 50 50 50 50 52 51 50 50 48 48 48 46 46 46 46 45 40 38 36 42 50 45 44 46 42 39 37 34 32 31 29 27 27 29 31 33
52 53 49 50 49 49 46 46 48 49 49 51 53 51 52 51 50 51 50 44 44 49 48 44 42 40 42 43 57 48 46 44 42 41 38 35 33 32 31 28 28 29 24
36 38 40 41 41 41 41 43 47 47 48 50 53 53 51 51 51 52 52 49 46 46 52 47 46 42 42 43 57 51 43 42 42 42 41 38 36 34 33 29 28 29 27
30 32 34 36 37 39 41 43 45 47 46 48 51 53 53 51 51 52 53 53 49 46 49 52 48 46 44 43 54 56 50 45 45 41 42 41 38 36 35 33 31 30 31
23 25 28 30 34 37 37 40 41 42 44 45 47 50 51 47 47 48 50 52 52 48 46 51 52 48 48 49 48 58 60 53 51 47 44 44 41 41 39 37 34 33 34
27 27 24 23 26 28 29 30 32 35 35 37 36 39 43 44 44 44 46 49 51 50 48 47 49 51 52 52 49 52 56 60 58 53 47 48 46 44 42 41 37 35 35
31 34 33 26 25 20 18 17 23 28 31 32 34 35 38 41 37 37 38 42 46 48 50 50 50 49 57 55 54 51 50 49 56 58 51 49 49 47 46 44 40 37 37
29 33 36 37 31 24 20 17 16 14 19 21 27 31 35 36 34 31 32 34 38 41 49 47 57 53 58 57 53 48 47 51 50 50 52 50 50 48 47 47 46 47 46
25 27 32 34 38 38 34 31 25 19 9 12 18 23 23 26 30 29 30 32 39 41 41 46 51 57 53 52 51 47 49 47 48 45 48 51 52 53 51 51 49 49 50
25 25 28 31 33 34 36 37 34 27 22 12 2 14 20 24 26 29 30 28 33 42 45 45 51 55 43 49 47 47 47 48 47 46 46 51 53 55 51 46 46 45 46
23 25 26 26 26 27 29 31 33 36 37 32 26 19 10 12 16 14 16 23 25 30 33 45 55 53 52 41 42 45 47 50 49 49 49 51 54 53 54 46 48 43 41
22 22 22 23 24 25 26 27 28 28 30 33 34 35 34 28 19 9 2 2 23 13 18 19 24 27 34 39 42 43 45 49 46 44 52 53 55 60 50 54 53 48 48

GFSMA_700_spd_135.txt.gz
Wind_Speed
30 29 30 30 31 34 36 36 37 37 33 30 30 27 29 26 30 27 25 24 22 25 25 25 24 24 24 24 24 23 23 19 20 20 19 19 21 21 21 20 14 20 23
31 31 33 32 31 33 36 39 41 41 35 32 32 29 31 30 33 30 29 29 26 28 28 27 28 27 27 27 26 25 24 21 21 22 22 21 22 23 24 25 23 16 23
33 33 32 32 32 33 35 37 38 45 36 34 33 30 33 33 33 35 35 34 33 31 32 30 30 30 30 29 29 28 26 25 23 24 24 23 21 23 26 26 27 27 21
29 31 33 33 32 31 34 35 34 38 22 31 30 41 35 37 39 49 45 40 35 37 35 34 33 33 32 31 31 31 29 28 27 26 27 26 23 23 24 27 25 25 27
27 28 29 31 32 33 33 30 27 25 26 28 30 33 40 39 45 48 52 51 43 37 39 39 36 36 36 35 33 33 31 30 31 30 29 29 26 24 25 26 27 24 27
26 28 29 28 27 28 30 31 27 28 28 30 32 35 35 38 41 45 46 52 49 47 40 40 40 38 39 40 36 35 34 32 32 33 31 31 30 29 26 27 29 26 26
30 29 30 31 31 32 33 33 34 32 31 30 32 34 37 38 42 41 44 47 48 53 44 42 38 41 40 39 42 39 37 36 34 34 34 32 32 31 29 28 30 28 26
33 33 34 35 37 37 36 37 37 35 36 34 34 35 37 38 42 40 41 50 57 57 44 47 49 45 45 43 40 43 41 39 36 37 35 35 34 33 32 31 32 32 30
37 38 38 39 39 41 43 42 40 41 40 38 38 37 39 41 41 42 41 42 41 46 47 46 48 52 53 58 46 44 45 43 39 38 38 36 36 34 34 34 33 33 33
42 43 44 43 43 42 43 44 45 44 43 42 41 40 40 41 43 45 40 42 36 38 43 48 50 53 54 59 56 50 46 44 42 41 39 39 37 36 35 36 35 36 35
42 43 45 45 46 46 47 47 48 48 47 47 46 46 44 41 42 45 48 47 46 46 45 45 44 49 53 55 58 53 60 47 43 44 41 41 38 36 37 35 36 35 36
41 44 48 48 50 52 51 51 52 51 53 52 50 49 47 45 40 44 48 49 50 48 45 43 42 40 40 45 47 53 65 60 54 48 47 45 38 37 38 35 34 34 35
36 37 41 41 43 49 53 53 53 55 53 53 54 52 49 48 48 45 47 50 52 50 47 44 43 42 36 40 50 50 49 52 56 57 55 50 42 39 38 36 34 33 31
37 39 40 43 45 47 47 52 57 53 51 49 51 52 51 51 51 50 48 49 53 52 51 49 42 36 40 42 47 51 52 55 51 60 59 53 47 43 41 39 35 34 31
35 35 38 40 43 44 46 48 49 54 55 54 54 52 54 55 57 55 51 51 53 55 53 48 47 43 47 49 43 49 49 54 46 46 69 57 52 46 45 43 38 36 34
26 27 30 33 36 40 43 45 47 47 52 56 60 62 60 60 60 61 57 53 54 55 57 50 47 46 42 42 46 47 52 51 48 49 66 60 53 49 49 48 42 40 39
13 15 17 20 25 29 33 37 40 43 47 52 55 58 59 61 62 59 56 54 53 54 57 55 50 48 43 40 35 42 47 48 45 39 56 54 44 49 53 51 46 45 43
11 15 19 24 25 22 21 24 29 35 40 45 49 53 57 58 57 56 55 54 53 52 54 56 52 49 50 46 43 47 27 45 41 40 52 51 48 48 51 53 49 47 47
11 15 20 25 28 31 33 29 25 25 29 34 37 43 48 50 52 53 54 55 52 50 51 54 54 50 49 49 47 47 46 31 38 39 53 57 57 53 53 52 52 50 49
10 13 16 21 24 30 36 38 41 36 29 26 27 31 35 37 44 50 52 51 50 49 48 50 54 50 47 50 51 48 48 48 48 45 48 46 52 64 62 55 54 55 54
11 14 18 21 24 26 30 38 43 46 45 37 26 21 22 24 30 35 39 44 47 47 45 48 49 47 42 42 49 50 46 45 48 45 49 47 48 51 60 61 57 54 50
11 15 18 21 23 25 27 28 32 38 42 46 36 25 17 15 20 22 24 27 32 37 41 43 45 45 46 42 46 51 48 44 46 48 47 51 47 48 51 55 64 60 59
12 15 17 19 21 24 25 27 28 28 31 38 42 36 28 18 11 10 17 20 22 25 34 38 40 42 45 47 45 52 56 42 42 39 46 49 51 50 49 47 50 54 56
11 13 16 18 19 21 23 23 24 25 26 26 31 36 38 35 30 23 13 8 19 23 24 26 31 36 39 42 48 46 54 57 44 49 44 46 39 46 48 50 51 54 53
10 13 15 16 17 19 20 20 21 21 22 22 23 24 27 34 35 32 28 21 12 6 17 26 30 37 39 41 39 39 50 53 54 57 53 55 40 39 49 55 55 53 54
12 14 16 17 18 18 18 18 19 19 19 21 21 20 21 23 23 25 26 29 27 28 22 13 9 19 33 40 42 43 45 44 48 55 58 51 55 56 47 51 52 53 51

GFSMA_700_spd_138.txt.gz
Wind_Speed
27 27 28 29 29 30 31 32 34 36 40 40 38 35 31 28 26 21 24 24 26 21 23 22 22 22 21 22 22 22 20 18 20 19 21 19 19 19 19 16 17 20 20
29 28 29 31 34 36 34 34 35 37 43 41 41 38 32 29 29 25 28 29 29 26 25 26 24 24 24 23 24 25 25 24 21 20 22 21 21 21 21 23 22 22 21
30 29 31 33 33 36 38 37 36 38 44 51 36 22 29 29 29 30 30 32 31 32 28 31 27 26 27 27 26 26 27 27 25 23 22 23 23 23 24 25 26 26 26
31 29 31 34 34 32 37 39 36 34 44 34 46 39 30 29 35 32 32 35 35 34 38 35 34 33 31 31 29 28 27 28 28 27 25 25 25 25 24 26 27 27 26
32 29 30 32 32 33 35 38 39 34 31 28 23 16 25 32 39 35 35 37 39 39 42 45 41 39 34 33 33 32 29 28 29 30 29 28 28 27 27 27 27 27 28
32 32 32 32 32 33 35 34 32 30 28 27 25 22 23 28 31 36 40 43 41 42 43 45 47 48 37 35 35 34 34 30 31 31 32 32 32 30 30 28 28 27 27
37 36 35 35 34 33 34 36 34 32 30 30 30 28 27 27 29 37 39 39 38 37 39 41 49 51 46 39 35 33 33 34 33 34 33 34 34 33 32 32 31 30 28
40 39 38 38 38 37 37 39 40 37 34 34 36 35 34 32 31 31 34 37 39 37 38 39 49 49 55 43 39 34 32 31 33 36 36 34 36 37 33 34 32 32 31
41 43 44 44 41 42 42 43 44 45 39 36 38 38 39 40 37 36 35 35 37 40 43 40 46 56 50 49 47 43 41 40 35 34 37 36 35 38 36 35 35 33 34
44 46 49 48 47 47 47 47 46 47 48 40 39 40 42 42 39 43 39 37 38 39 37 34 39 41 46 45 43 44 44 44 45 45 37 37 35 35 39 37 37 36 36
31 35 44 47 49 51 52 54 53 51 50 49 48 44 43 46 45 45 43 45 41 39 42 40 37 33 41 49 47 46 43 46 45 45 45 40 37 36 38 39 39 37 37
36 35 36 37 39 44 49 52 53 54 55 57 54 51 50 48 47 48 48 45 47 44 41 43 43 43 44 45 43 43 44 45 49 47 44 39 36 38 37 39 41 40 37
35 35 36 38 39 41 42 43 45 46 48 52 57 54 51 50 52 49 51 49 47 48 45 43 45 43 42 42 42 39 40 42 50 46 49 47 45 48 42 39 42 41 39
33 33 33 37 39 40 42 43 46 48 49 50 50 53 57 55 50 50 50 53 50 48 48 44 41 44 45 44 41 40 41 39 41 44 45 45 46 51 49 45 43 43 41
27 27 28 30 32 32 35 37 40 42 46 48 49 50 51 56 54 52 49 51 54 51 49 49 43 40 45 43 46 47 45 37 39 44 46 46 49 48 46 52 47 46 42
20 19 18 19 20 22 24 27 30 33 37 40 44 45 47 50 57 57 55 54 56 55 55 54 50 45 42 45 44 48 39 35 40 47 46 39 40 47 48 54 50 48 44
14 12 12 14 17 20 22 21 21 23 26 31 36 41 43 46 51 54 56 57 59 59 59 55 56 49 46 44 45 46 46 42 41 46 44 50 46 47 55 55 57 52 48
11 9 10 14 17 22 25 27 29 30 28 24 26 31 37 41 45 45 48 51 54 54 55 57 53 50 46 46 46 46 48 48 50 35 44 45 48 47 53 61 66 60 49
11 11 11 12 13 16 20 26 31 35 40 40 31 24 26 32 37 43 45 47 49 48 49 51 51 49 45 45 47 47 47 52 49 51 46 38 33 37 37 42 46 51 48
15 12 11 11 13 16 18 21 26 30 36 43 44 35 25 22 27 32 35 39 44 46 46 46 45 46 42 41 45 44 49 49 49 48 49 30 27 25 37 39 44 48 44
11 9 9 10 12 14 17 21 25 27 29 35 42 45 38 25 18 18 23 28 32 37 42 42 41 42 41 40 42 43 47 48 47 42 46 36 37 35 34 37 41 48 52
9 8 9 10 12 15 19 22 24 26 28 29 32 39 43 36 26 20 15 17 22 23 27 31 36 38 40 41 40 40 40 45 45 36 40 40 37 39 38 40 41 44 51
8 9 10 13 15 17 20 21 23 24 25 26 27 26 33 39 39 37 30 21 9 13 17 19 25 30 37 41 39 38 39 41 43 36 42 29 36 38 41 42 45 46 47
8 10 11 13 15 17 19 20 21 22 22 23 23 23 24 24 31 38 38 35 30 18 5 12 17 20 27 34 33 35 40 45 41 41 41 44 33 36 39 42 42 45 49
7 9 11 12 14 16 17 19 20 21 21 21 20 20 19 19 22 23 23 27 33 34 33 25 17 8 20 30 32 31 33 35 39 46 40 45 51 45 49 39 35 39 45
8 9 11 13 14 15 15 16 17 18 19 19 19 20 19 18 19 20 19 19 18 18 23 22 27 25 22 15 9 22 31 34 36 36 45 46 49 48 53 53 45 50 44

GFSMA_700_spd_144.txt.gz
Wind_Speed
34 35 34 33 32 33 33 33 32 33 32 33 35 34 31 35 33 22 39 33 29 29 27 24 24 20 21 22 21 20 21 20 21 19 20 20 18 18 19 23 20 17 16
36 37 37 35 34 35 34 34 34 33 35 37 41 39 38 38 38 28 31 40 42 33 29 28 24 21 20 21 22 22 21 22 23 21 21 21 20 19 21 23 26 25 21
38 39 38 37 37 36 36 36 35 36 37 37 37 36 35 35 27 22 13 23 36 41 34 29 25 24 24 23 24 23 23 23 24 24 24 24 23 22 23 25 27 26 26
35 37 38 39 39 40 40 39 38 37 38 37 34 32 31 31 28 22 23 20 36 29 28 34 33 32 29 27 25 26 24 24 26 26 26 27 25 25 25 27 27 27 27
32 34 36 38 39 40 41 40 40 38 38 37 38 33 26 24 22 20 21 25 32 30 31 35 37 37 36 35 33 31 29 27 27 28 28 29 28 28 27 28 28 28 27
28 30 32 33 35 36 38 38 37 38 38 36 36 34 28 25 17 17 21 28 30 26 36 39 40 39 36 37 36 38 40 38 28 29 29 31 31 31 30 30 31 30 29
26 26 28 30 33 35 37 37 38 38 39 38 35 33 30 29 27 18 21 27 32 33 36 39 41 41 41 39 40 42 41 42 34 30 31 32 33 34 33 33 33 33 32
27 27 28 29 30 31 32 34 36 37 38 39 38 36 34 33 34 30 26 28 31 33 33 35 41 43 43 43 44 44 42 41 42 37 34 34 35 36 36 35 34 35 34
31 32 33 34 35 36 37 37 35 34 35 38 40 39 38 39 37 36 34 34 34 36 36 36 36 35 36 38 40 41 42 38 43 47 43 37 36 37 38 39 37 36 35
33 34 35 36 36 37 38 38 37 37 36 33 36 41 41 40 41 40 42 41 42 41 41 43 43 42 40 40 38 38 41 43 42 45 47 48 41 41 41 42 41 39 37
35 36 37 39 40 39 39 40 40 39 38 37 35 34 37 41 41 45 45 46 48 48 49 49 48 49 44 42 42 40 39 39 44 44 46 49 51 48 46 45 44 43 41
35 36 36 37 37 37 37 38 39 39 40 39 38 37 36 38 40 44 46 47 51 52 55 56 55 54 55 49 45 43 41 41 42 42 45 52 51 51 50 53 46 45 44
33 35 35 34 32 31 31 32 33 34 35 37 38 38 37 39 41 43 46 46 48 49 53 57 61 58 56 56 48 45 44 43 45 45 40 43 49 52 49 57 57 54 46
33 32 29 26 24 23 23 22 22 23 24 26 30 33 37 38 40 43 46 48 49 50 52 53 56 61 62 57 56 49 46 45 45 46 46 46 44 47 52 48 46 57 54
29 25 21 19 18 17 16 16 17 18 19 20 21 23 27 31 35 39 44 47 51 55 55 56 56 53 59 61 55 51 48 47 45 46 46 46 45 45 45 44 46 50 58
23 20 17 14 14 13 13 13 14 15 16 18 19 20 21 24 27 32 36 41 46 52 59 58 58 57 55 60 58 54 48 46 46 44 44 47 47 46 45 44 47 54 59
20 17 16 15 16 17 16 15 15 15 17 20 22 24 24 23 22 24 28 33 40 46 54 58 55 54 54 57 59 51 48 47 46 44 44 44 48 49 47 42 51 43 46
18 17 17 17 18 18 16 14 14 16 18 19 20 23 28 29 29 25 23 24 30 36 47 55 50 51 52 53 56 56 50 49 48 47 48 47 48 47 42 39 43 46 43
16 15 15 14 18 19 18 17 17 18 18 18 19 20 22 26 30 29 26 23 24 27 35 44 47 44 47 48 54 55 55 52 50 51 49 50 50 48 47 45 43 51 54
16 16 16 17 17 17 18 18 18 19 20 19 19 20 21 20 27 27 30 29 23 21 23 26 32 33 42 45 48 52 50 52 50 51 51 52 50 48 42 44 47 54 46
15 16 17 17 17 16 17 17 18 18 18 18 18 19 21 22 23 25 29 31 31 20 14 14 17 19 22 31 38 43 43 40 43 44 44 46 48 49 48 46 44 44 46
14 16 17 17 16 16 15 16 16 16 16 17 17 19 20 22 22 23 23 30 29 30 24 12 8 11 13 15 21 29 34 35 37 37 33 33 41 44 42 46 44 41 32
14 16 16 15 15 16 15 15 16 16 16 17 18 18 20 21 22 22 21 19 22 26 24 25 22 13 8 7 9 14 19 25 32 31 28 27 24 28 40 35 38 36 34
12 14 13 13 13 16 16 15 17 17 17 17 18 18 18 20 21 22 21 20 19 19 20 21 21 22 22 18 7 7 10 15 23 28 26 26 30 35 30 29 35 34 32
11 11 11 12 14 16 16 17 18 19 18 18 19 19 18 18 19 20 20 20 20 20 20 18 18 18 17 17 18 18 8 10 16 21 24 28 31 35 32 41 42 40 35
9 9 12 15 16 16 17 17 18 19 19 19 19 19 17 17 17 16 16 16 16 16 17 19 19 18 17 15 13 11 11 10 7 16 21 25 29 27 37 40 43 49 51

GFSMA_700_spd_147.txt.gz
Wind_Speed
35 36 37 36 36 35 35 35 34 33 31 31 31 33 34 37 35 31 33 25 25 42 34 30 29 26 24 22 23 23 23 21 21 22 22 22 22 21 20 17 16 18 20
36 39 40 39 39 38 38 36 34 35 35 33 32 32 34 35 34 32 28 21 16 26 38 36 34 29 31 29 25 24 26 23 23 24 25 23 23 23 22 22 22 21 21
34 38 41 42 41 39 38 38 36 35 36 36 34 33 32 30 30 29 24 25 21 21 36 44 39 35 34 32 34 25 27 27 25 26 27 25 25 25 23 24 26 27 26
30 33 36 39 40 40 40 40 39 38 37 37 38 37 33 30 27 27 24 23 22 26 35 43 37 40 42 36 33 30 31 29 29 28 28 29 28 28 27 26 27 30 31
28 30 32 35 38 39 40 40 40 39 40 39 38 37 36 32 28 27 24 20 23 28 34 43 40 45 51 49 39 35 35 33 32 31 31 32 33 32 30 30 28 30 32
24 26 28 30 31 33 36 37 38 40 39 38 37 36 34 33 30 28 26 23 21 28 33 42 36 39 40 39 41 35 40 39 44 40 37 35 36 35 34 33 32 30 33
23 24 25 26 27 28 29 31 32 34 38 39 38 35 32 32 33 30 29 27 23 24 34 40 40 41 43 40 42 51 44 39 44 44 46 38 42 38 35 34 34 34 33
26 27 27 27 28 29 30 31 32 32 34 34 34 34 34 33 33 33 33 31 27 28 31 39 41 41 43 43 45 42 32 42 39 38 38 39 45 37 36 36 36 36 36
27 29 30 31 31 32 33 33 32 32 32 33 35 34 32 33 33 35 37 38 36 34 35 36 40 40 40 38 38 36 35 38 38 42 39 41 50 41 40 40 39 39 39
30 31 32 34 35 36 36 35 34 34 33 32 34 34 34 34 32 33 39 43 44 43 41 43 43 42 42 42 41 39 36 35 38 41 42 42 48 46 44 44 43 42 42
32 32 33 34 35 36 37 36 34 33 32 32 32 33 34 34 35 36 32 43 48 48 48 48 49 50 48 47 45 44 44 42 40 40 41 45 44 46 46 51 49 46 46
31 31 33 33 33 33 32 32 31 30 29 29 29 30 32 33 36 39 39 36 41 51 55 55 54 53 54 53 51 49 47 46 45 44 44 45 45 48 48 53 52 56 52
30 31 31 31 30 28 24 23 23 22 21 20 20 21 25 30 33 38 41 40 41 42 50 60 60 59 59 58 58 58 56 52 49 48 47 44 47 46 50 52 53 53 56
29 32 30 27 24 21 19 18 18 19 19 19 19 17 16 20 25 31 36 41 43 46 47 51 57 64 66 63 62 63 63 60 55 51 49 48 47 49 47 48 53 56 50
30 29 26 23 19 16 16 17 18 17 17 18 20 21 19 17 19 24 27 33 39 46 49 53 56 58 61 64 66 66 65 64 62 52 49 49 48 49 49 51 50 55 59
28 25 23 20 18 18 19 20 21 19 17 18 20 21 23 23 21 21 22 26 32 40 49 51 53 58 60 60 59 60 61 61 62 61 53 50 50 48 48 48 52 49 46
26 24 21 19 19 19 20 20 19 19 19 21 22 22 24 26 27 28 26 26 26 32 41 46 49 51 54 57 58 60 61 59 57 56 56 53 52 49 49 49 49 47 45
24 23 20 18 19 19 21 20 20 21 21 21 22 22 22 22 23 28 30 32 30 28 32 37 38 41 46 47 54 57 58 58 56 55 53 54 54 51 49 46 47 48 49
22 20 18 19 19 19 20 20 21 21 22 20 20 20 19 19 20 21 25 29 31 30 28 28 27 26 28 39 45 48 47 48 49 54 53 52 54 54 50 48 48 46 49
20 20 19 18 19 19 20 20 22 21 21 21 20 19 18 18 18 19 20 23 27 29 30 26 25 22 19 23 33 36 36 41 43 46 50 51 53 54 51 51 51 48 49
19 18 17 17 17 19 19 20 21 21 21 21 20 19 19 19 19 20 20 22 23 27 29 30 25 19 16 18 18 21 23 26 32 35 40 45 50 54 54 53 53 51 49
19 17 16 16 16 16 17 18 18 19 19 19 20 20 20 20 20 20 21 22 22 22 24 26 25 22 16 12 11 11 11 18 26 29 29 31 35 43 48 49 53 53 50
17 15 15 15 15 15 15 16 16 17 19 18 19 20 19 20 21 21 21 21 22 23 22 20 22 22 22 21 17 9 6 9 13 20 26 26 30 27 36 42 45 49 51
15 13 13 14 13 15 15 16 16 17 19 19 19 19 19 20 21 21 21 21 20 21 21 20 19 17 18 23 23 21 11 7 6 8 19 27 25 31 30 28 28 38 33
13 12 11 12 14 14 16 17 17 18 19 20 20 19 19 19 20 21 21 21 21 20 21 21 19 18 17 16 16 17 17 17 8 7 11 19 25 28 31 38 37 31 41
13 11 11 13 14 16 16 17 18 19 19 20 20 20 19 19 19 20 19 18 18 19 19 20 21 21 20 17 15 14 13 12 12 12 7 15 19 22 29 35 40 43 40

GFSMA_700_spd_153.txt.gz
Wind_Speed
29 30 31 33 34 35 34 34 34 32 32 32 32 31 30 30 31 29 26 23 24 23 23 29 38 36 35 30 28 30 30 30 28 27 27 26 25 26 25 25 24 23 25
23 25 27 29 31 33 35 35 34 33 31 29 29 29 29 29 29 28 26 24 25 25 23 26 32 37 37 37 37 35 35 33 31 30 29 29 27 27 28 27 26 25 24
22 23 24 26 28 30 32 33 35 36 33 32 31 30 30 29 29 28 27 25 26 28 26 32 29 37 39 41 42 38 39 38 35 33 32 31 30 30 30 30 29 28 25
20 21 22 23 24 25 27 29 31 33 35 33 29 29 32 32 30 29 29 29 29 30 31 32 35 39 41 44 45 41 42 43 42 37 35 35 34 34 33 31 31 30 28
21 22 23 23 23 23 24 25 27 28 30 31 31 27 26 29 33 31 29 29 31 33 33 33 37 40 44 47 49 45 46 45 50 37 37 38 37 36 36 34 33 32 31
24 24 24 24 24 25 26 27 28 29 28 28 30 29 26 26 29 32 32 32 34 36 37 36 37 39 43 45 45 47 51 47 51 57 44 39 39 40 39 38 37 35 35
27 29 27 27 27 27 28 28 29 30 31 30 28 28 26 27 28 30 33 35 35 38 40 40 39 37 38 39 46 46 53 53 53 46 45 42 47 45 43 41 40 39 38
25 27 28 28 29 29 30 30 30 31 30 31 31 30 28 26 28 30 32 35 38 39 41 42 41 41 38 36 39 45 53 50 48 40 43 50 47 53 45 45 45 43 42
26 27 28 29 31 30 30 32 32 31 31 32 31 29 29 28 24 29 31 34 37 41 42 44 44 44 43 40 38 40 48 52 51 48 44 48 50 59 51 49 51 48 46
27 29 30 30 30 29 29 29 31 30 29 28 30 27 26 27 26 26 31 34 36 39 44 45 47 47 47 45 44 42 44 50 50 53 48 43 31 41 49 46 52 54 54
28 29 30 29 29 27 26 27 27 27 25 23 23 22 23 24 23 25 25 30 36 41 44 46 48 50 51 51 51 48 46 43 42 46 50 41 34 29 36 31 39 40 47
28 29 28 28 28 29 28 26 25 22 22 20 18 19 19 19 19 21 21 23 29 37 44 48 51 51 54 55 55 56 54 49 49 49 43 42 36 34 30 30 32 35 36
27 28 29 28 29 29 28 26 21 18 18 17 17 14 15 16 16 16 17 17 19 24 33 43 52 55 56 59 59 59 59 57 53 50 48 45 42 40 38 36 35 34 38
25 28 30 29 28 27 26 24 22 17 17 18 17 16 16 17 18 19 19 18 16 18 21 27 34 49 58 60 62 63 64 61 59 56 53 51 49 46 44 42 40 38 36
30 28 27 27 28 27 24 21 20 19 18 17 17 17 18 19 19 20 22 24 22 20 21 21 25 30 40 54 62 64 65 65 65 63 62 60 56 53 51 49 46 44 42
30 26 27 26 27 25 22 19 18 17 18 18 18 19 18 18 20 21 22 24 25 24 23 24 27 26 28 36 47 57 62 64 64 64 67 67 65 61 59 56 53 50 48
25 25 25 26 24 23 21 19 18 18 18 18 18 19 19 19 20 21 22 24 25 24 24 24 24 30 27 27 33 42 50 57 61 65 64 64 68 70 68 65 60 56 52
23 24 25 25 23 21 20 20 19 18 18 17 18 18 18 19 19 21 22 23 24 23 24 24 23 26 26 23 23 26 34 43 48 55 60 65 63 62 65 68 67 64 60
23 23 24 23 23 21 20 18 18 18 18 17 16 16 17 17 19 21 22 22 22 22 23 23 22 24 28 27 23 22 22 28 35 39 46 54 59 59 59 60 60 61 58
23 22 22 22 21 19 18 18 17 17 17 17 17 17 17 17 18 19 20 20 21 21 21 22 21 21 20 24 28 22 18 15 20 26 32 37 42 48 54 56 56 56 55
20 20 20 20 20 18 17 17 16 15 16 17 18 18 18 18 18 17 18 18 19 19 19 20 20 20 17 16 19 20 15 11 11 14 18 22 26 29 34 40 46 50 52
19 19 19 18 16 15 15 15 15 15 16 17 18 19 19 19 18 17 17 16 17 17 16 16 17 17 17 17 15 16 18 11 9 12 14 17 19 22 25 28 31 32 40
18 18 17 15 14 14 14 14 14 15 15 16 17 18 18 18 17 16 15 15 15 15 15 15 15 16 15 13 12 13 14 16 9 10 15 16 18 18 16 18 22 25 31
18 17 15 13 12 14 13 14 15 14 14 14 15 17 17 16 17 16 14 14 14 14 14 14 14 15 14 14 12 10 9 11 14 9 9 12 17 18 20 18 17 15 19
17 14 12 12 13 13 13 14 14 14 15 16 16 15 16 17 16 15 14 13 12 12 12 12 12 11 11 13 14 15 16 14 10 10 11 9 11 15 19 19 17 25 27
15 12 11 12 11 11 12 12 13 13 15 16 17 16 14 14 14 14 13 13 12 12 12 11 11 13 14 15 15 14 12 12 10 10 10 10 10 10 11 15 19 24 28